DO-64
1 32789U 08021G 12201.74591947 .00003690 00000-0 42733-3 0 03682
2 32789 097.8111 264.9062 0013538 313.5668 046.4374 14.86040519228715
CO-66
1 32791U 08021J 12201.63729600 .00001313 00000-0 16566-3 0 03508
2 32791 097.7992 261.9686 0014743 318.1545 041.8422 14.83523491228554
RS-30
1 32953U 08025A 12202.69241536 .00000010 00000-0 00000 0 0 9787
2 32953 082.5024 274.3053 0017730 231.8829 128.0659 12.43025705188726
TACSAT-3
1 35001U 09028A 12121.72616188 .15204951 73582-5 42606-3 0 00016
2 35001 040.4259 351.8840 0007146 275.2650 085.0693 16.45157000166990
PHARMSAT
1 35002U 09028B 12202.45849120 .00216816 25063-4 46790-3 0 9981
2 35002 040.4506 212.4054 0008134 137.6601 222.4866 15.97548690179628
METEOR-M
1 35865U 09049A 12202.78604452 -.00000032 00000-0 50929-5 0 6085
2 35865 098.6527 256.4783 0002083 337.0049 023.1033 14.21865748147370
RS-38
1 35869U 09049E 12202.73183747 .00000038 00000-0 36799-4 0 6165
2 35869 098.6479 256.4151 0004164 326.1923 033.8987 14.22079280147387
JUGNU
1 37839U 11058B 12201.18215463 .00000620 00000-0 19019-3 0 01905
2 37839 019.9616 164.3996 0018685 213.9934 145.9273 14.12067822039771
SRMSAT
1 37841U 11058D 12201.20948642 .00000264 00000-0 00000-0 0 01915
2 37841 019.9720 169.7497 0012278 183.0207 177.0151 14.10149976039722
RAX-2
1 37853U 11061D 12202.84965708 .00001301 00000-0 11287-3 0 2359
2 37853 101.7119 258.3665 0246310 254.8248 102.5566 14.80220244 39376
AUBIESAT
1 37854U 11061E 12201.84944470 .00002778 00000-0 22471-3 0 02448
2 37854 101.7104 257.2007 0246774 256.6686 100.6849 14.80618884039227
HRBE
1 37855U 11061F 12201.86639046 .00002438 00000-0 19906-3 0 02397
2 37855 101.7137 257.1720 0247351 257.0429 100.3016 14.80464264039221
RS-39
1 38051U 11062C 12202.89467069 .00006939 00000-0 28856-3 0 5325
2 38051 051.6351 359.1587 0014876 155.4714 000.3815 15.24794552 27113
E-STAR
1 38079U 12006C 12202.51230909 .00023081 00000-0 55571-3 0 3659
2 38079 069.4863 239.4126 0736428 205.9120 150.3066 14.16908180 22307
GOLIAT
1 38085U 12006J 12202.52724245 .00023495 00000-0 56992-3 0 3363
2 38085 069.4929 239.7500 0740400 206.2396 149.9420 14.15906229 22297
HORYU-2
1 38340U 12025D 12202.38380381 .00000585 00000-0 10591-3 0 559
2 38340 098.1761 142.1895 0011936 222.8757 137.1475 14.70045877 9353
